FW7576 Weather Reports


time (UTC)temp
F
wind
direction
speed
knots
gust
knots
rain 1hr
in
rain 24hr
in
rain mn
in
humidity
%
barometer
mb
20260901084547 75 224 2.6 4.3 0.00 0.16 0.00 86 1013.6
20260901083046 75 238 1.7 2.6 0.00 0.16 0.00 87 1013.5
20260901081546 75 251 0.9 3.5 0.00 0.16 0.00 87 1013.4
20260901080041 75 253 0.9 2.6 0.00 0.16 0.00 87 1013.5
20260901074547 75 255 0.9 1.7 0.00 0.16 0.00 87 1013.6
20260901073046 75 0 0.0 2.6 0.00 0.16 0.00 87 1013.5
20260901071553 75 0 0.0 3.5 0.00 0.16 0.00 87 1013.5
20260901070044 75 252 0.9 3.5 0.00 0.16 0.00 86 1013.7
20260901064543 76 267 1.7 4.3 0.00 0.16 0.00 86 1013.7
20260901063041 76 228 1.7 4.3 0.00 0.16 0.00 86 1013.7
20260901061546 76 228 0.9 3.5 0.00 0.16 0.00 86 1013.6
20260901060047 76 248 0.9 2.6 0.00 0.16 0.00 86 1013.5
20260901054543 76 237 2.6 5.2 0.00 0.16 0.00 85 1013.6
20260901053044 76 258 1.7 4.3 0.00 0.16 0.00 85 1013.5
20260901051546 76 257 1.7 5.2 0.00 0.16 0.00 86 1013.4
20260901050044 76 253 1.7 3.5 0.00 0.16 0.00 86 1013.5
20260901044545 76 256 0.0 3.5 0.00 0.16 0.16 86 1013.7
20260901043043 77 250 2.6 5.2 0.00 0.16 0.16 86 1013.8
20260901041607 77 254 1.7 5.2 0.00 0.16 0.16 86 1013.6
20260901040045 77 250 2.6 4.3 0.00 0.16 0.16 85 1013.7
20260901034540 77 252 2.6 5.2 0.00 0.16 0.16 85 1013.7
20260901033040 77 241 1.7 4.3 0.00 0.16 0.16 85 1013.9
20260901031544 77 257 1.7 4.3 0.00 0.16 0.16 85 1013.8
20260901030051 78 232 0.0 1.7 0.00 0.16 0.16 85 1013.8
20260901024543 78 252 0.0 4.3 0.00 0.16 0.16 84 1013.9
20260901023050 79 231 2.6 4.3 0.00 0.16 0.16 83 1013.9
20260901021549 79 264 2.6 4.3 0.00 0.16 0.16 83 1014.0
20260901020042 79 244 1.7 5.2 0.00 0.16 0.16 82 1013.7
20260901014549 80 252 0.9 2.6 0.00 0.16 0.16 81 1013.5
20260901013045 80 245 1.7 5.2 0.00 0.16 0.16 80 1013.6
20260901011542 81 278 1.7 6.1 0.00 0.16 0.16 79 1013.4
20260901010046 81 249 0.9 6.1 0.00 0.16 0.16 78 1013.0
20260901004551 81 205 1.7 7.8 0.00 0.16 0.16 77 1013.0
20260901003042 82 250 1.7 7.8 0.00 0.16 0.16 76 1013.0
20260901001545 82 258 1.7 5.2 0.00 0.16 0.16 76 1012.9
20260901000048 82 243 0.9 7.0 0.00 0.16 0.16 75 1012.9
20260831234545 82 223 1.7 10.4 0.00 0.16 0.16 74 1012.8
20260831233049 82 224 1.7 7.0 0.00 0.16 0.16 74 1012.7
20260831231547 83 224 1.7 9.6 0.00 0.16 0.16 74 1012.6
20260831230044 83 234 4.3 10.4 0.00 0.16 0.16 73 1012.7
20260831224551 83 265 3.5 11.3 0.00 0.16 0.16 74 1012.5
20260831223044 83 245 3.5 8.7 0.00 0.16 0.16 73 1012.3
20260831221540 84 220 1.7 9.6 0.00 0.16 0.16 72 1012.4
20260831220050 84 231 3.5 9.6 0.00 0.16 0.16 71 1012.4
20260831214546 84 268 3.5 12.2 0.00 0.16 0.16 70 1012.3
20260831213041 84 255 6.1 11.3 0.00 0.16 0.16 70 1012.7
20260831211548 84 235 3.5 7.8 0.00 0.16 0.16 71 1012.6
20260831210047 83 233 4.3 7.8 0.00 0.16 0.16 70 1012.1
20260831204543 83 253 2.6 7.0 0.00 0.16 0.16 70 1012.0
20260831203042 83 271 4.3 10.4 0.00 0.16 0.16 69 1012.2
20260831201541 84 258 3.5 7.8 0.00 0.16 0.16 67 1012.5
20260831200040 85 268 3.5 12.2 0.00 0.16 0.16 66 1012.2
20260831194603 86 262 5.2 10.4 0.00 0.16 0.16 63 1012.3
20260831193041 86 264 5.2 13.0 0.00 0.16 0.16 60 1012.2
20260831191544 87 212 4.3 16.5 0.00 0.16 0.16 61 1012.3
20260831190045 86 264 2.6 6.1 0.00 0.16 0.16 65 1012.2
20260831184541 85 233 4.3 10.4 0.00 0.16 0.16 66 1012.3
20260831183047 84 207 3.5 11.3 0.00 0.16 0.16 68 1012.5
20260831181544 84 238 5.2 10.4 0.00 0.16 0.16 66 1012.7
20260831180050 84 193 3.5 8.7 0.00 0.16 0.16 66 1012.7
20260831174550 84 246 4.3 13.0 0.00 0.16 0.16 65 1012.9
20260831173045 84 207 4.3 12.2 0.00 0.16 0.16 64 1012.8
20260831171546 84 219 2.6 10.4 0.00 0.16 0.16 66 1012.9
20260831170044 83 230 3.5 13.9 0.00 0.16 0.16 67 1013.0
20260831164549 82 229 6.1 11.3 0.00 0.16 0.16 67 1013.2
20260831163043 81 241 3.5 8.7 0.00 0.16 0.16 70 1013.1
20260831161549 79 259 2.6 10.4 0.00 0.16 0.16 73 1013.1
20260831160048 79 191 4.3 12.2 0.00 0.16 0.16 72 1013.2
20260831154610 78 195 3.5 9.6 0.00 0.16 0.16 73 1013.5
20260831153043 78 190 2.6 8.7 0.00 0.16 0.16 74 1013.6
20260831151542 77 203 1.7 5.2 0.00 0.16 0.16 76 1013.3
20260831150044 76 233 2.6 6.1 0.00 0.16 0.16 77 1013.5
20260831144542 75 222 1.7 6.1 0.00 0.16 0.16 78 1013.3
20260831143050 75 179 1.7 5.2 0.00 0.16 0.16 80 1013.4
20260831141551 74 206 1.7 6.1 0.00 0.16 0.16 81 1013.3
20260831140043 73 219 1.7 4.3 0.00 0.16 0.16 81 1013.3
20260831134545 73 198 2.6 5.2 0.00 0.16 0.16 83 1013.3
20260831133044 72 208 1.7 6.1 0.00 0.16 0.16 84 1013.3
20260831131551 72 176 2.6 5.2 0.00 0.16 0.16 84 1013.2
20260831130045 71 195 1.7 5.2 0.00 0.16 0.16 85 1013.1
20260831124544 71 221 1.7 6.1 0.00 0.17 0.16 86 1013.5
20260831123043 70 204 1.7 4.3 0.01 0.17 0.16 87 1013.5
20260831121545 70 0 0.9 5.2 0.01 0.17 0.16 87 1013.4
20260831120053 70 210 1.7 4.3 0.01 0.17 0.16 87 1013.5
20260831114543 70 182 1.7 5.2 0.02 0.19 0.16 87 1013.6
20260831113048 70 186 0.9 2.6 0.02 0.18 0.15 87 1013.7
20260831111545 70 182 0.9 1.7 0.06 0.18 0.15 87 1013.6
20260831110043 70 152 0.0 3.5 0.14 0.18 0.15 87 1013.6
20260831104541 69 188 0.9 1.7 0.14 0.32 0.14 87 1013.7
20260831103044 70 203 1.7 2.6 0.13 0.31 0.13 87 1014.2
20260831101544 70 0 0.0 2.6 0.09 0.27 0.09 87 1014.7
20260831100045 70 290 0.0 1.7 0.01 0.19 0.01 87 1014.8
20260831094541 70 0 0.0 0.0 0.00 0.26 0.00 87 1013.8
20260831093049 70 0 0.0 1.7 0.00 0.26 0.00 87 1013.6
20260831091545 70 0 0.0 0.0 0.00 0.26 0.00 87 1013.9
20260831090043 70 0 0.0 0.9 0.00 0.26 0.00 87 1013.9